Location: Borojevi?i
(45.0486°N, 16.2297°E)
Time: 20:42:45
(UTC+00:00)

USA 234 - Pass Details

Date: 08 August 2020
Orbit: 1100 x 1108 km, 123.0° (Epoch: 17 September)

Event Time Altitude Azimuth Distance (km) Brightness Sun altitude
Exits shadow 18:31:22 - 92° (E) 3,812 5.5 -3.9°
Reaches altitude 10° 18:33:42 10° 86° (E) 2,960 5.0 -4.3°
Maximum altitude 18:39:43 41° 19° (NNE) 1,555 4.2 -5.3°
Drops below altitude 10° 18:45:44 10° 313° (NW) 2,971 7.2 -6.2°
Sets 18:48:22 0° 306° (NW) 3,931 8.7 -6.6°
